Preview of NWS' New Version of Forecast
This preview is not operational and should not be used for support decisions.
Latest weather observations around

Granbury, Granbury Municipal Airport (KGDJ)

Using English Units (Switch to International System of Units)
Date/ Time (CDT) Wind (mph) Vis. (mi) Weather Sky Cond. Temp (°F) Rel. Humidity Wind Chill (°F) Heat Index (°F) Pressure Precip. (in)
Air Dwpt 6 hour Altimeter (inHg) Sea level (inHg) 1 hr 3 hr 6 hr
Max Min
Sep 23 14:55 ESE 3 10 Mostly Cloudy SCT070 BKN090 BKN120 94 66     40%   98 29.98        
Sep 23 14:35 Calm 10 Clear CLR 95 65     38%   98 29.99        
Sep 23 14:15 ESE 3 10 Partly Cloudy SCT110 94 66     40%   97 30        
Sep 23 13:55 SE 5 10 Light Rain BKN110 95 66     39%   99 30.01        
Sep 23 13:35 ESE 6 10 Partly Cloudy SCT050 SCT075 95 66     39%   98 30.02        
Sep 23 13:15 SSW 7 10 Mostly Cloudy BKN050 BKN075 BKN090 96 67     39%   100 30.03        
Sep 23 12:55 WSW 5 10 Mostly Cloudy BKN050 BKN080 94 66     40%   98 30.04        
Sep 23 12:35 S 5 10 Mostly Cloudy BKN080 93 68     43%   97 30.05        
Sep 23 12:15 WSW 5 10 Clear CLR 93 69     45%   99 30.05        
Sep 23 11:55 WSW 6 10 Clear CLR 91 69     49%   97 30.06        
Sep 23 11:35 WSW 5 10 Clear CLR 90 70     51%   96 30.07        
Sep 23 11:15 WSW 8 10 Clear CLR 89 70     53%   94 30.07        
Sep 23 11:00 WSW 8 10 Clear CLR 88 70     56%   94 30.07        
Sep 23 10:35 WSW 9 10 Clear CLR 87 71     58%   92 30.07        
Sep 23 10:15 WSW 9 10 Clear CLR 86 71     61%   91 30.07        
Sep 23 09:55 ESE 8 10 Clear CLR 84 71     65%   90 30.07        
Sep 23 09:35 SSW 9 10 Clear CLR 83 71     68%   88 30.07        
Sep 23 09:15 SSW 8 10 Clear CLR 82 72     72%   86 30.07        
Sep 23 08:55 SE 6 10 Clear CLR 81 72     74%   85 30.06        
Sep 23 08:35 SE 5 10 Clear CLR 79 71     77%   83 30.05        
Sep 23 08:20 ESE 6 10 Clear CLR 79 71     78%   82 30.05        
Sep 23 07:55 ESE 5 10 Clear CLR 78 71     80%   79 30.05        
Sep 23 07:35 ESE 3 10 Clear CLR 78 71     78%   80 30.04        
Sep 23 07:15 ESE 6 10 Clear CLR 79 71     77%   80 30.04        
Sep 23 06:55 ESE 6 10 Clear CLR 79 71     76%   82 30.03        
Sep 23 06:35 ESE 6 10 Clear CLR 79 71     75%   82 30.03        
Sep 23 06:15 ESE 3 10 Clear CLR 79 70     75%   80 30.03        
Sep 23 05:55 ESE 6 10 Clear CLR 80 71     74%   83 30.02        
Sep 23 05:35 ESE 6 10 Clear CLR 80 70     73%   83 30.02        
Sep 23 05:15 ESE 6 10 Clear CLR 80 70     71%   84 30.01        
Sep 23 05:00 ESE 7 10 Clear CLR 81 70     71%   84 30.01        
Sep 23 04:35 ESE 5 10 Clear CLR 81 70     71%   84 30.01        
Sep 23 04:15 ESE 6 10 Clear CLR 81 70     69%   85 30.01        
Sep 23 03:55 ESE 7 10 Clear CLR 81 70     68%   85 30        
Sep 23 03:35 ESE 7 10 Clear CLR 81 70     68%   85 30        
Sep 23 03:15 ESE 7 10 Clear CLR 82 70     67%   86 30        
Sep 23 02:55 ESE 10 10 Clear CLR 82 70     66%   86 30        
Sep 23 02:35 ESE 8 10 Clear CLR 83 69     64%   86 30        
Sep 23 02:15 ESE 8 10 Clear CLR 83 68     62%   86 30        
Sep 23 01:55 ESE 8 10 Clear CLR 83 68     60%   86 30        
Sep 23 01:35 ESE 9 10 Clear CLR 83 67     59%   86 30        
Sep 23 01:15 ESE 8 10 Clear CLR 84 67     57%   87 30        
Sep 23 00:55 ESE 9 10 Partly Cloudy SCT085 84 67     56%   87 30        
Sep 23 00:35 ESE 8 10 Cloudy OVC085 84 66     56%   86 30        
Sep 23 00:15 ESE 8 10 Mostly Cloudy BKN085 84 66     54%   86 30        
Sep 22 23:55 ESE 9 10 Mostly Cloudy BKN085 85 65     52%   87 29.99        
Sep 22 23:40 ESE 8 10 Partly Cloudy SCT085 85 65     51%   87 30        
Sep 22 23:15 ESE 7 10 Clear CLR 85 64     49%   86 29.99        
Sep 22 22:55 ESE 9 10 Partly Cloudy SCT080 85 64     49%   86 29.99        
Sep 22 22:35 ESE 7 10 Partly Cloudy SCT080 86 64     49%   87 29.98        
Sep 22 22:15 ESE 7 10 Mostly Cloudy BKN080 86 64     49%   88 29.98        
Sep 22 21:55 ESE 7 10 Partly Cloudy SCT080 87 64     48%   88 29.98        
Sep 22 21:35 ESE 6 10 Clear CLR 87 64     47%   89 29.97        
Sep 22 21:15 ESE 8 10 Clear CLR 88 64     46%   89 29.96        
Sep 22 20:55 ESE 7 10 Clear CLR 88 64     45%   90 29.96        
Sep 22 20:40 ESE 8 10 Clear   89 64     45%   90 29.95        
Sep 22 20:15 ESE 7 10 Clear   90 65     44%   91 29.94        
Sep 22 19:55 ESE 7 10 Clear   90 65     43%   92 29.93        
Sep 22 19:35 ESE 5 10 Partly Cloudy SCT080 92 64     39%   94 29.92        
Sep 22 19:15 ESE 6 10 Partly Cloudy SCT080 93 63     38%   95 29.92        
Sep 22 18:55 ESE 7 10 Clear CLR 94 63     36%   96 29.92        
Sep 22 18:35 ESE 10 10 Clear CLR 95 63     34%   96 29.92        
Sep 22 18:15 SE 8 10 Partly Cloudy SCT110 95 63     34%   97 29.92        
Sep 22 17:55 ESE 10 10 Mostly Cloudy BKN110 96 63     34%   98 29.92        
Sep 22 17:35 ESE 9 10 Mostly Cloudy SCT065 SCT085 BKN110 95 63     36%   96 29.92        
Sep 22 17:15 ESE 8 10 Mostly Cloudy SCT065 BKN085 BKN100 95 64     36%   97 29.92        
Sep 22 16:55 ESE 10 10 Mostly Cloudy SCT065 SCT075 BKN100 95 64     36%   97 29.92        
Sep 22 16:35 ESE 9 10 Mostly Cloudy SCT065 BKN075 BKN095 95 64     36%   97 29.92        
Sep 22 16:15 SE 9 10 Cloudy BKN065 BKN075 OVC090 95 64     36%   97 29.93        
Sep 22 15:55 SSE 11 10 Cloudy SCT065 OVC090 95 64     36%   97 29.93        
Sep 22 15:35 ESE 8 10 Cloudy SCT065 OVC090 94 64     38%   96 29.94        
Sep 22 15:15 ESE 8 10 Mostly Cloudy SCT065 BKN080 BKN090 93 65     39%   96 29.95        
Sep 22 14:55 SSE 11 10 Mostly Cloudy SCT055 BKN075 95 65     38%   97 29.96        
Sep 22 14:35 SSW 11 10 Mostly Cloudy BKN060 BKN065 BKN075 94 66     39%   97 29.97        
Sep 22 14:15 SSW 10 10 Partly Cloudy SCT050 94 65     39%   97 29.97        
Sep 22 13:55 SE 11 10 Partly Cloudy SCT050 92 67     43%   95 29.98        
Sep 22 13:35 SSE 13 10 Mostly Cloudy BKN050 91 67     45%   95 29.99        
Sep 22 13:15 SE 10 10 Mostly Cloudy BKN047 92 67     45%   95 30        
Sep 22 12:55 WSW 11 10 Partly Cloudy SCT043 92 67     45%   96 30.01        
Sep 22 12:35 SW 14 10 Mostly Cloudy BKN041 BKN047 91 68     47%   94 30.01        
Sep 22 12:15 ESE 11 10 Mostly Cloudy BKN039 90 68     50%   94 30.02        
Sep 22 11:55 S 13 10 Cloudy OVC039 89 68     50%   93 30.02        
Sep 22 11:40 SW 11 10 Cloudy OVC034 89 68     51%   93 30.03        
Sep 22 11:15 SE 15 10 Partly Cloudy SCT032 87 69     56%   91 30.03        
Sep 22 10:55   10 Mostly Cloudy BKN032 86 69     56%   90 30.03        
Sep 22 10:35 S 18 10 Mostly Cloudy BKN030 BKN036 86 69     56%   90 30.04        
Sep 22 10:15 SE 14 10 Mostly Cloudy BKN026 83 70     64%   87 30.04        
Sep 22 09:55 SSW 14 10 Partly Cloudy SCT022 SCT028 83 70     66%   87 30.04        
Sep 22 09:35 SE 15 10 Partly Cloudy SCT022 82 70     68%   86 30.03        
Sep 22 09:15 SE 11 10 Clear CLR 80 71     73%   84 30.02        
Sep 22 08:55 ESE 14 10 Clear CLR 79 71     75%   82 30.02        
Sep 22 08:35 ESE 13 10 Clear CLR 79 71     76%   80 30.02        
Sep 22 08:15   10 Clear CLR 78 71     78%   79 30.02        
Sep 22 07:55 ESE 10 10 Partly Cloudy SCT016 78 71     79%   79 30.02        
Sep 22 07:35 ESE 9 10 Partly Cloudy SCT016 78 71     80%   79 30.02        
Sep 22 07:15 ESE 10 10 Clear CLR 78 71     80%   79 30.02        
Sep 22 06:55 ESE 11 10 Clear CLR 78 70     79%   79 30.02        
Sep 22 06:35 SE 13 10 Clear CLR 78 70     77%   79 30.02        
Sep 22 06:15 ESE 11 10 Clear CLR 78 70     77%   79 30.02        
Sep 22 05:55 ESE 13 10 Clear CLR 78 70     76%   79 30.02        
Sep 22 05:35 ESE 11 10 Clear CLR 78 70     75%   80 30.02        
Sep 22 05:15 SE 13 10 Clear CLR 78 70     75%   80 30.01        
Sep 22 05:00 ESE 10 10 Clear CLR 79 70     74%   80 30.01        
Sep 22 04:35 SE 13 10 Clear CLR 79 70     74%   82 30.01        
Sep 22 04:15 ESE 11 10 Clear CLR 79 70     73%   82 30.01        
Sep 22 03:55 SE 13 10 Clear CLR 80 70     72%   83 30.01        
Sep 22 03:35 SE 11 10 Clear CLR 80 70     71%   83 30.01        
Sep 22 03:15 SE 14 10 Clear CLR 80 70     71%   83 30.01        
Sep 22 02:55 SSE 10 10 Clear CLR 81 70     70%   84 30.02        
Sep 22 02:35 SE 13 10 Clear CLR 81 70     69%   84 30.01        
Sep 22 02:15 ESE 9 10 Clear CLR 81 70     68%   85 30        
Sep 22 01:55 SE 13 10 Clear CLR 82 70     67%   85 30        
Sep 22 01:35 ESE 13 10 Clear CLR 82 70     66%   86 30        
Sep 22 01:15 ESE 13 10 Clear CLR 82 69     65%   86 30        
Sep 22 00:55 ESE 14 10 Clear CLR 83 69     64%   87 30        
Sep 22 00:35 ESE 8 10 Clear CLR 83 69     63%   87 30        
Sep 22 00:15 ESE 10 10 Clear CLR 83 69     62%   87 30        
Sep 21 23:55 ESE 13 10 Clear CLR 84 69     59%   88 30        
Sep 21 23:35 ESE 14 10 Clear CLR 85 68     58%   88 30        
Sep 21 23:15 ESE 13 10 Clear CLR 85 68     57%   88 29.99        
Sep 21 22:55 ESE 15 10 Clear CLR 85 67     55%   88 29.99        
Sep 21 22:35 ESE 15 10 Clear CLR 86 68     55%   89 29.99        
Sep 21 22:15 ESE 14 10 Clear CLR 86 68     54%   90 29.99        
Sep 21 21:55 ESE 13 10 Clear CLR 87 67     52%   90 29.99        
Sep 21 21:35 ESE 14 10 Clear CLR 87 67     50%   90 29.98        
Sep 21 21:15 ESE 13 10 Clear CLR 88 66     49%   90 29.97        
Sep 21 20:55 ESE 11 10 Clear CLR 88 65     47%   90 29.96        
Sep 21 20:35 ESE 11 10 Clear CLR 89 65     46%   90 29.96        
Sep 21 20:15 ESE 10 10 Clear CLR 89 65     46%   91 29.96        
Sep 21 19:55 ESE 10 10 Clear CLR 89 66     46%   92 29.95        
Sep 21 19:35 ESE 13 10 Clear CLR 90 66     46%   93 29.94        
Sep 21 19:15 ESE 14 10 Partly Cloudy SCT070 91 66     44%   93 29.93        
Sep 21 18:55 ESE 15 10 Partly Cloudy SCT070 92 65     42%   94 29.94        
Sep 21 18:35 ESE 16 10 Mostly Cloudy SCT070 BKN100 BKN120 93 65     41%   95 29.93        
Sep 21 18:15 ESE 15 10 Mostly Cloudy BKN070 BKN090 BKN110 93 65     40%   96 29.93        
Sep 21 17:55 ESE 10 10 Cloudy OVC070 94 65     38%   97 29.94        
Sep 21 17:35 ESE 13 10 Cloudy BKN060 OVC090 95 63     35%   97 29.95        
Sep 21 17:15 ESE 11 10 Cloudy BKN060 OVC090 95 63     35%   97 29.95        
Sep 21 16:55 ESE 14 10 Cloudy BKN065 OVC090 93 64     38%   95 29.96        
Sep 21 16:35 ESE 16 10 Mostly Cloudy SCT065 BKN085 93 64     39%   95 29.96        
Sep 21 16:15 ESE 13 10 Partly Cloudy SCT065 SCT095 93 65     40%   95 29.97        
Sep 21 15:55 SE 15 10 Mostly Cloudy SCT055 BKN065 BKN095 93 65     40%   96 29.97        
Sep 21 15:35 ESE 14 10 Mostly Cloudy BKN050 BKN065 BKN075 93 65     40%   96 29.98        
Sep 21 15:15 ESE 14 10 Mostly Cloudy BKN050 BKN065 BKN075 94 65     38%   97 29.99        
Sep 21 14:55 SE 13 10 Partly Cloudy SCT050 SCT055 SCT090 93 66     42%   96 30        
Sep 21 14:35 ESE 14 10 Partly Cloudy SCT049 SCT075 93 65     40%   96 30.01        
Sep 21 14:15   10 Partly Cloudy SCT047 SCT075 92 67     44%   95 30.02        
Sep 21 13:55 SE 16 10 Mostly Cloudy SCT047 BKN060 BKN075 92 67     45%   95 30.03        
Sep 21 13:35   10 Cloudy BKN047 BKN060 OVC075 90 67     46%   94 30.04        
Sep 21 13:15 ESE 14 10 Mostly Cloudy SCT040 SCT046 BKN050 91 67     46%   94 30.05        
Sep 21 12:55 ESE 16 10 Mostly Cloudy SCT041 BKN060 BKN075 90 68     47%   94 30.06        
Sep 21 12:35 ESE 13 10 Mostly Cloudy BKN043 BKN060 89 68     50%   94 30.07        
Sep 21 12:15 ESE 15 10 Mostly Cloudy BKN038 BKN045 90 69     49%   95 30.07        
Sep 21 11:55   10 Mostly Cloudy BKN040 BKN046 89 68     49%   93 30.07        
Sep 21 11:35   10 Mostly Cloudy BKN036 BKN043 88 68     52%   92 30.07        
Sep 21 11:15 ESE 13 10 Mostly Cloudy SCT034 BKN044 86 70     58%   91 30.08        
Sep 21 10:55 ESE 15 10 Partly Cloudy SCT029 SCT035 SCT041 86 70     59%   91 30.09        
Sep 21 10:35 ESE 15 10 Mostly Cloudy SCT025 SCT035 BKN041 84 70     62%   88 30.09        
Sep 21 10:15 SE 15 10 Mostly Cloudy SCT021 BKN028 BKN037 83 71     65%   88 30.09        
Sep 21 09:55 SE 13 10 Cloudy BKN018 OVC026 81 72     72%   86 30.09        
Sep 21 09:35 ESE 13 10 Cloudy OVC018 81 72     76%   85 30.09        
Sep 21 09:15 ESE 11 10 Cloudy BKN014 OVC019 80 72     79%   83 30.08        
Sep 21 08:55 ESE 10 10 Cloudy OVC012 79 72     81%   82 30.08        
Sep 21 08:35 ESE 10 10 Cloudy OVC012 78 72     82%   80 30.08        
Sep 21 08:15 ESE 10 10 Cloudy OVC012 78 72     84%   79 30.07        
Sep 21 07:55 ESE 9 10 Cloudy OVC014 77 72     84%   79 30.06        
Sep 21 07:35 ESE 13 10 Cloudy OVC014 77 72     84%   79 30.05        
Sep 21 07:15 ESE 11 10 Cloudy OVC016 77 72     84%   79 30.05        
Sep 21 06:55 ESE 11 10 Cloudy OVC016 77 72     83%   79 30.05        
Sep 21 06:35 ESE 9 10 Cloudy OVC016 78 72     82%   79 30.05        
Sep 21 06:15 ESE 9 10 Cloudy OVC016 78 72     82%   79 30.04        
Sep 21 05:55 ESE 8 10 Cloudy OVC016 78 72     82%   79 30.04        
Sep 21 05:35 ESE 8 10 Cloudy OVC016 78 72     82%   79 30.03        
Sep 21 05:15 ESE 8 10 Cloudy OVC018 78 72     81%   80 30.03        
Sep 21 04:55 ESE 8 10 Mostly Cloudy BKN018 78 72     81%   80 30.02        
Sep 21 04:40 ESE 9 10 Partly Cloudy SCT018 79 72     80%   82 30.01        
Sep 21 04:15 ESE 10 10 Partly Cloudy SCT020 79 72     79%   82 30.01        
Sep 21 03:55 ESE 11 10 Mostly Cloudy BKN020 79 72     79%   82 30.01        
Sep 21 03:35 ESE 10 10 Mostly Cloudy BKN020 79 72     78%   82 30        
Sep 21 03:15 ESE 13 10 Mostly Cloudy BKN020 80 72     77%   83 30        
Sep 21 02:55 ESE 10 10 Mostly Cloudy BKN022 81 72     75%   85 30        
Sep 21 02:40 ESE 15 10 Mostly Cloudy BKN022 81 72     75%   85 30        
Sep 21 02:20 ESE 13 10 Mostly Cloudy BKN022 BKN027 81 72     75%   85 30.01        
Sep 21 01:55 ESE 14 10 Mostly Cloudy BKN022 BKN027 81 72     76%   85 30.02        
Sep 21 01:35 ESE 11 10 Cloudy BKN022 OVC027 81 72     76%   85 30.02        
Sep 21 01:15 ESE 11 10 Partly Cloudy SCT020 SCT025 81 72     75%   85 30.02        
Sep 21 00:55 ESE 13 10 Clear CLR 81 72     74%   85 30.02        
Sep 21 00:35 ESE 13 10 Partly Cloudy SCT023 81 72     74%   85 30.02        
Sep 21 00:20 ESE 15 10 Mostly Cloudy BKN023 81 71     72%   85 30.02        
Sep 20 23:55 ESE 13 10 Partly Cloudy SCT023 81 71     71%   86 30.02        
Sep 20 23:35 ESE 14 10 Clear CLR 82 71     70%   86 30.02        
Sep 20 23:15   10 Clear CLR 82 71     68%   87 30.02        
Sep 20 22:55 ESE 18 10 Clear CLR 83 71     67%   87 30.02        
Sep 20 22:35 ESE 15 10 Clear CLR 84 71     65%   88 30.01        
Sep 20 22:15 ESE 14 10 Clear CLR 85 71     63%   90 30        
Sep 20 21:55 ESE 17 10 Clear CLR 85 70     61%   90 29.99        
Sep 20 21:35 ESE 13 10 Clear CLR 86 69     58%   90 29.97        
Sep 20 21:15 ESE 10 10 Clear CLR 87 69     56%   91 29.96        
Sep 20 21:00 ESE 15 10 Clear CLR 87 69     56%   91 29.95        
Sep 20 20:35   10 Clear CLR 88 69     53%   92 29.93        
Sep 20 20:15 ESE 17 10 Clear CLR 89 68     50%   94 29.92        
Sep 20 19:55 ESE 10 10 Clear CLR 92 62     37%   93 29.91        
Sep 20 19:35 ESE 11 10 Clear   93 62     36%   94 29.91        
Sep 20 19:15 ESE 11 10 Clear   94 62     35%   94 29.9        
Sep 20 19:00 ESE 15 10 Clear   94 62     34%   95 29.9        
Sep 20 18:35 ESE 14 10 Partly Cloudy SCT120 95 61     33%   95 29.9        
Sep 20 18:15 ESE 14 10 Partly Cloudy SCT100 95 62     33%   96 29.9        
Sep 20 17:55 ESE 15 10 Mostly Cloudy SCT075 BKN100 BKN120 95 62     33%   96 29.89        
Sep 20 17:35 ESE 14 10 Clear   96 62     33%   97 29.89        
Sep 20 17:15 ESE 14 10 Clear   96 60     31%   96 29.89        
Sep 20 16:55 ESE 13 10 Clear   96 61     31%   97 29.89        
Sep 20 16:35 ESE 16 10 Partly Cloudy SCT065 97 61     30%   98 29.88        
Sep 20 16:15 SE 13 10 Partly Cloudy SCT065 97 61     31%   98 29.88        
Sep 20 15:55 ESE 15 10 Partly Cloudy SCT065 96 62     32%   97 29.88        
Sep 20 15:35 ESE 15 10 Partly Cloudy SCT055 SCT070 98 63     32%   99 29.88        
Sep 20 15:15 ESE 13 10 Partly Cloudy SCT055 95 63     35%   97 29.89        
Sep 20 14:55 ESE 14 10 Partly Cloudy SCT055 96 64     35%   99 29.89        
Sep 20 14:35   10 Partly Cloudy SCT055 SCT065 95 66     38%   98 29.9        
Sep 20 14:15   10 Partly Cloudy SCT050 SCT065 SCT080 96 67     39%   99 29.91        
Sep 20 13:55 ESE 9 10 Partly Cloudy SCT048 SCT065 94 69     44%   100 29.92        
Sep 20 13:40 ESE 10 10 Mostly Cloudy SCT045 SCT060 BKN065 94 68     43%   99 29.92        
Sep 20 13:15 SE 13 10 Mostly Cloudy BKN045 BKN050 92 69     47%   97 29.94        
Sep 20 12:55 ESE 13 10 Mostly Cloudy SCT043 BKN050 93 69     46%   99 29.95        
Sep 20 12:35 ESE 10 10 Cloudy BKN044 OVC049 92 70     48%   98 29.96        
Sep 20 12:15 SSE 16 10 Mostly Cloudy BKN042 BKN050 91 69     48%   97 29.96        
Sep 20 11:40 SE 14 10 Cloudy OVC037 89 70     54%   94 29.97        
Sep 20 11:15   10 Cloudy BKN033 OVC039 89 71     55%   95 29.97        
Sep 20 10:55   10 Mostly Cloudy BKN033 88 71     58%   94 29.97        
May 15 08:55 Calm 10 Clear CLR 77 68     73%   78 29.98        
May 14 19:55 SE 10 10 Clear CLR 86 66     52%   88 29.85        
May 14 18:35 SE 9 10 Clear CLR 89 65     46%   91 29.86        
May 14 17:35 SE 14 10 Clear CLR 91 65     43%   93 29.86        
May 14 16:15 SE 11 10 Partly Cloudy SCT060 91 66     43%   94 29.89        
May 14 10:15 SSE 11 10 Partly Cloudy SCT025 SCT080 82 67     62%   85 30        
May 14 04:55 SE 9 10 Clear   75 67     77%   75 29.97        
Notice The following observation data may not be complete
May 13 18:15   10 Clear CLR          %              
May 13 12:15 S 10 10 Clear   83 67     58%   86 30.03        
May 13 10:15 SE 11 10 Mostly Cloudy BKN021 BKN028 81 68     65%   84 30.03        
May 13 04:15 SE 8 10 Clear CLR 72 66     82%   73 29.96        
May 13 03:55 SE 8 10 Clear CLR 72 66     81%   73 29.96        
Notice The following observation data may not be complete
May 13 01:35   10 Clear CLR          %              
May 12 21:50 ESE 7 10 Clear CLR 80 63     56%   80 29.95        
May 12 17:15 SE 15 10 Clear CLR 90 59     36%   89 29.9        
May 12 16:15 SE 17 10 Clear CLR 90 59     35%   89 29.91        
May 12 14:35 SE 13 10 Clear CLR 90 59     35%   89 29.94        
May 12 14:15 S 14 10 Clear CLR 89 59     36%   88 29.95        
May 12 04:55 SSE 11 10 Partly Cloudy SCT019 73 66     78%   74 29.9        
May 12 02:55 SSE 17 10 Clear CLR 74 65     74%   75 29.9        
May 12 01:35 SSE 15 10 Clear CLR 76 64     66%   77 29.91        
May 11 23:35 SE 8 10 Clear CLR 78 61     56%   78 29.9        
May 11 22:55 SE 11 10 Clear CLR 79 60     53%   79 29.88        
May 11 22:15 SE 14 10 Clear CLR 80 60     51%   80 29.87        
May 11 21:35 SE 11 10 Clear CLR 81 60     49%   81 29.85        
Jun 12 06:15 ESE 7 10 Clear CLR 73 69     88%   74 29.92        
Notice The following observation data may not be complete
Jun 12 03:15   10 Clear CLR          %              
Notice The following observation data may not be complete
Jun 12 01:15   10 Clear CLR          %              
Jun 11 22:15 ESE 7 10 Clear CLR 81 64     56%   82 29.9        
Jun 11 20:35 SE 11 10 Clear CLR 85 64     51%   86 29.87        
Notice The following observation data may not be complete
Jun 11 19:35   10 Clear CLR          %              
Notice The following observation data may not be complete
Jun 11 17:35   10 Clear            %              
Notice The following observation data may not be complete
Jun 11 13:55   10 Partly Cloudy SCT044          %              
Jun 11 11:55 SE 14 10 Partly Cloudy SCT038 86 66     51%   88 29.93        
Jun 10 22:15 ESE 10 10 Clear CLR 81 65     59%   83 29.87        
Jun 10 18:35 SE 15 10 Partly Cloudy SCT048 88 67     50%   91 29.82        
Jun 10 16:15 SE 13 10 Clear CLR 91 67     46%   95 29.84        
Notice The following observation data may not be complete
Jun 10 15:15   10 Clear CLR          %              
Jun 10 14:55 SSE 13 10 Clear CLR 90 66     45%   93 29.86        
Jun 10 12:55   10 Clear CLR 87 65     47%   89 29.89        
Jun 10 11:15 SSE 14 10 Clear CLR 83 62     49%   84 29.91        
Jun 09 16:55 ESE 14 10 Clear CLR 83 70     64%   88 29.85        
Jun 09 13:15 SE 13 10 Mostly Cloudy BKN016 79 69     72%   80 29.89        
Jun 09 11:35 ESE 13 10 Cloudy BKN008 OVC016 72 66     84%   72 29.93        
Jun 09 10:35 E 13 10 Cloudy SCT008 OVC020 70 66     87%     29.93        
Jun 09 09:55 E 10 10 Mostly Cloudy BKN024 BKN060 BKN075 69 65     89%     29.93     0  
Jun 09 07:35 NNE 3 10 Cloudy OVC039 72 65     77%   73 29.93        
Notice The following observation data may not be complete
Jun 09 02:15   10 Clear CLR          %              
Jun 09 00:35 ESE 7 10 Clear   76 63     65%   76 29.91        
Jun 08 23:55 ESE 7 10 Clear CLR 77 64     66%   77 29.91        
Jun 08 23:15 ESE 11 10 Clear CLR 78 64     62%   79 29.91        
Jun 08 13:15 E 3 10 Partly Cloudy SCT045 85 63     47%   86 29.99        
Jun 08 10:35 SSE 7 10 Clear CLR 80 63     56%   82 30.03        
Notice The following observation data may not be complete
Jun 08 07:55   10 Clear CLR          %              
Jun 07 21:55 Calm 10 Clear CLR 78 66     67%   79 29.97        
Notice The following observation data may not be complete
Jun 06 14:15   10 Partly Cloudy SCT055 SCT080          %              
Jun 06 12:35 NNE 9 10 Partly Cloudy SCT044 SCT055 87 66     49%   89 29.92        
Jun 06 07:35 WNW 5 10 Clear CLR 71 69     94%   72 29.9        
Jun 06 05:35 WNW 5   Clear   68 67     94%     29.87        
Notice The following observation data may not be complete
Jun 05 14:15   10 Partly Cloudy SCT095          %